Time,TemperatureF,DewpointF,PressureIn,WindDirection,WindDirectionDegrees,WindSpeedMPH,WindSpeedGustMPH,Humidity,HourlyPrecipIn,Conditions,Clouds,dailyrainin,SoftwareType,DateUTC
2013-02-15 00:00:00,22.7,16.6,29.94,NW,316,0.0,0.0,77,0.00,RA,BKN,0.00,WeatherDisplay:10.37,2013-02-15 05:00:00,
2013-02-15 00:03:00,22.7,16.9,29.94,NW,315,0.0,0.0,78,0.00,RA,BKN,0.00,WeatherDisplay:10.37,2013-02-15 05:03:00,
2013-02-15 00:08:00,22.7,16.9,29.94,NW,316,0.0,0.0,78,0.00,RA,BKN,0.00,WeatherDisplay:10.37,2013-02-15 05:08:00,
2013-02-15 00:13:00,22.7,16.6,29.94,NW,315,0.0,0.0,77,0.00,OVC,BKN,0.00,WeatherDisplay:10.37,2013-02-15 05:13:00,
2013-02-15 00:18:00,22.7,16.6,29.94,NW,315,0.0,0.0,77,0.00,OVC,BKN,0.00,WeatherDisplay:10.37,2013-02-15 05:18:00,
2013-02-15 00:23:00,22.8,16.7,29.94,NW,315,0.0,0.0,77,0.00,OVC,BKN,0.00,WeatherDisplay:10.37,2013-02-15 05:23:00,
2013-02-15 00:28:00,22.9,16.8,29.94,NW,315,0.0,0.0,77,0.00,OVC,BKN,0.00,WeatherDisplay:10.37,2013-02-15 05:28:00,
2013-02-15 00:33:00,22.9,17.1,29.94,NW,316,0.0,0.0,78,0.00,OVC,BKN,0.00,WeatherDisplay:10.37,2013-02-15 05:33:00,
2013-02-15 00:38:00,23.0,17.2,29.94,NW,316,0.0,0.0,78,0.00,OVC,BKN,0.00,WeatherDisplay:10.37,2013-02-15 05:38:00,
2013-02-15 00:43:00,23.1,17.3,29.94,NW,316,0.0,0.0,78,0.00,OVC,BKN,0.00,WeatherDisplay:10.37,2013-02-15 05:43:00,
2013-02-15 00:48:00,23.3,17.2,29.94,NW,315,0.0,0.0,77,0.00,OVC,BKN,0.00,WeatherDisplay:10.37,2013-02-15 05:48:00,
2013-02-15 00:53:00,23.7,17.2,29.94,NW,316,0.0,0.0,76,0.00,OVC,BKN,0.00,WeatherDisplay:10.37,2013-02-15 05:53:00,
2013-02-15 00:58:00,24.2,17.4,29.94,NW,315,0.0,0.0,75,0.00,OVC,BKN,0.00,WeatherDisplay:10.37,2013-02-15 05:58:00,
2013-02-15 01:03:00,24.4,17.6,29.94,NW,316,0.0,0.0,75,0.00,OVC,BKN,0.00,WeatherDisplay:10.37,2013-02-15 06:03:00,
2013-02-15 01:08:00,24.5,17.4,29.94,NW,316,0.0,0.0,74,0.00,OVC,BKN,0.00,WeatherDisplay:10.37,2013-02-15 06:08:00,
2013-02-15 01:13:00,24.5,17.4,29.94,NW,315,0.0,0.0,74,0.00,OVC,BKN,0.00,WeatherDisplay:10.37,2013-02-15 06:13:00,
2013-02-15 01:18:00,24.2,17.4,29.94,NW,315,0.0,0.0,75,0.00,OVC,BKN,0.00,WeatherDisplay:10.37,2013-02-15 06:18:00,
2013-02-15 01:23:00,23.9,17.1,29.94,NW,316,0.0,0.0,75,0.00,OVC,BKN,0.00,WeatherDisplay:10.37,2013-02-15 06:23:00,
2013-02-15 01:28:00,23.6,17.1,29.94,NW,316,0.0,0.0,76,0.00,OVC,BKN,0.00,WeatherDisplay:10.37,2013-02-15 06:28:00,
2013-02-15 01:33:00,23.5,17.0,29.94,NW,316,0.0,0.0,76,0.00,OVC,BKN,0.00,WeatherDisplay:10.37,2013-02-15 06:33:00,
2013-02-15 01:38:00,23.3,16.9,29.94,NW,315,0.0,0.0,76,0.00,OVC,BKN,0.00,WeatherDisplay:10.37,2013-02-15 06:38:00,
2013-02-15 01:43:00,23.4,17.3,29.94,NW,315,0.0,0.0,77,0.00,OVC,BKN,0.00,WeatherDisplay:10.37,2013-02-15 06:43:00,
2013-02-15 01:48:00,23.5,17.3,29.94,NW,315,0.0,0.0,77,0.00,OVC,BKN,0.00,WeatherDisplay:10.37,2013-02-15 06:48:00,
2013-02-15 01:53:00,23.5,17.3,29.94,NW,316,0.0,0.0,77,0.00,OVC,BKN,0.00,WeatherDisplay:10.37,2013-02-15 06:53:00,
2013-02-15 01:58:00,23.4,17.3,29.94,NW,315,0.0,0.0,77,0.00,OVC,BKN,0.00,WeatherDisplay:10.37,2013-02-15 06:58:00,
2013-02-15 02:03:00,23.3,17.5,29.93,NW,316,0.0,0.0,78,0.00,OVC,BKN,0.00,WeatherDisplay:10.37,2013-02-15 07:03:00,
2013-02-15 02:08:00,23.3,17.5,29.93,NW,316,0.0,0.0,78,0.00,OVC,BKN,0.00,WeatherDisplay:10.37,2013-02-15 07:08:00,
2013-02-15 02:13:00,23.5,17.6,29.93,NW,316,0.0,0.0,78,0.00,OVC,BKN,0.00,WeatherDisplay:10.37,2013-02-15 07:13:00,
2013-02-15 02:18:00,23.6,18.0,29.93,NW,316,0.0,0.0,79,0.00,OVC,BKN,0.00,WeatherDisplay:10.37,2013-02-15 07:18:00,
2013-02-15 02:23:00,23.8,18.2,29.93,NW,316,0.0,0.0,79,0.00,OVC,BKN,0.00,WeatherDisplay:10.37,2013-02-15 07:23:00,
2013-02-15 02:28:00,23.7,17.8,29.92,NW,316,0.0,0.0,78,0.00,OVC,BKN,0.00,WeatherDisplay:10.37,2013-02-15 07:28:00,
2013-02-15 02:33:00,23.7,17.8,29.92,NW,316,0.0,0.0,78,0.00,OVC,BKN,0.00,WeatherDisplay:10.37,2013-02-15 07:33:00,
2013-02-15 02:38:00,23.6,17.7,29.93,NW,316,0.0,0.0,78,0.00,OVC,BKN,0.00,WeatherDisplay:10.37,2013-02-15 07:38:00,
2013-02-15 02:43:00,23.6,17.7,29.93,NW,316,0.0,0.0,78,0.00,OVC,BKN,0.00,WeatherDisplay:10.37,2013-02-15 07:43:00,
2013-02-15 02:48:00,23.7,17.8,29.92,NW,316,0.0,0.0,78,0.00,OVC,BKN,0.00,WeatherDisplay:10.37,2013-02-15 07:48:00,
2013-02-15 02:53:00,23.9,17.7,29.93,NW,316,0.0,0.0,77,0.00,OVC,BKN,0.00,WeatherDisplay:10.37,2013-02-15 07:53:00,
2013-02-15 02:58:00,24.0,17.8,29.92,NW,316,0.0,0.0,77,0.00,OVC,BKN,0.00,WeatherDisplay:10.37,2013-02-15 07:58:00,
2013-02-15 03:03:00,24.1,17.9,29.92,NW,316,0.0,0.0,77,0.00,OVC,BKN,0.00,WeatherDisplay:10.37,2013-02-15 08:03:00,
2013-02-15 03:08:00,24.1,18.2,29.92,NW,316,0.0,0.0,78,0.00,OVC,BKN,0.00,WeatherDisplay:10.37,2013-02-15 08:08:00,
2013-02-15 03:13:00,24.0,18.1,29.92,NW,316,0.0,0.0,78,0.00,OVC,BKN,0.00,WeatherDisplay:10.37,2013-02-15 08:13:00,
2013-02-15 03:18:00,24.0,18.1,29.92,NW,316,0.0,0.0,78,0.00,OVC,BKN,0.00,WeatherDisplay:10.37,2013-02-15 08:18:00,
2013-02-15 03:23:00,24.0,18.1,29.92,NW,316,0.0,0.0,78,0.00,OVC,BKN,0.00,WeatherDisplay:10.37,2013-02-15 08:23:00,
2013-02-15 03:28:00,24.0,18.1,29.92,NW,316,0.0,0.0,78,0.00,OVC,BKN,0.00,WeatherDisplay:10.37,2013-02-15 08:28:00,
2013-02-15 03:33:00,24.0,17.8,29.92,NW,316,0.0,0.0,77,0.00,OVC,BKN,0.00,WeatherDisplay:10.37,2013-02-15 08:33:00,
2013-02-15 03:38:00,24.1,17.9,29.92,NW,316,0.0,0.0,77,0.00,OVC,BKN,0.00,WeatherDisplay:10.37,2013-02-15 08:38:00,
2013-02-15 03:43:00,24.2,18.3,29.92,NW,316,0.0,0.0,78,0.00,OVC,BKN,0.00,WeatherDisplay:10.37,2013-02-15 08:43:00,
2013-02-15 03:48:00,24.2,18.3,29.92,NW,315,0.0,0.0,78,0.00,OVC,BKN,0.00,WeatherDisplay:10.37,2013-02-15 08:48:00,
2013-02-15 03:53:00,24.2,18.3,29.92,NW,316,0.0,0.0,78,0.00,OVC,BKN,0.00,WeatherDisplay:10.37,2013-02-15 08:53:00,
2013-02-15 03:58:00,24.1,18.2,29.93,NW,316,0.0,0.0,78,0.00,OVC,BKN,0.00,WeatherDisplay:10.37,2013-02-15 08:58:00,
2013-02-15 04:03:00,24.0,18.1,29.92,NW,315,0.0,0.0,78,0.00,OVC,BKN,0.00,WeatherDisplay:10.37,2013-02-15 09:03:00,
2013-02-15 04:08:00,24.0,18.4,29.92,NW,316,0.0,0.0,79,0.00,OVC,BKN,0.00,WeatherDisplay:10.37,2013-02-15 09:08:00,
2013-02-15 04:13:00,23.9,18.0,29.92,NW,316,0.0,0.0,78,0.00,OVC,BKN,0.00,WeatherDisplay:10.37,2013-02-15 09:13:00,
2013-02-15 04:18:00,23.8,17.9,29.92,NW,316,0.0,0.0,78,0.00,OVC,BKN,0.00,WeatherDisplay:10.37,2013-02-15 09:18:00,
2013-02-15 04:23:00,23.6,17.7,29.92,NW,316,0.0,0.0,78,0.00,OVC,BKN,0.00,WeatherDisplay:10.37,2013-02-15 09:23:00,
2013-02-15 04:28:00,23.4,17.6,29.92,NW,316,0.0,0.0,78,0.00,OVC,BKN,0.00,WeatherDisplay:10.37,2013-02-15 09:28:00,
2013-02-15 04:33:00,23.3,17.5,29.92,NW,316,0.0,0.0,78,0.00,OVC,BKN,0.00,WeatherDisplay:10.37,2013-02-15 09:33:00,
2013-02-15 04:38:00,23.3,17.7,29.92,NW,315,0.0,0.0,79,0.00,OVC,BKN,0.00,WeatherDisplay:10.37,2013-02-15 09:38:00,
2013-02-15 04:43:00,23.4,17.8,29.92,NW,316,0.0,0.0,79,0.00,OVC,BKN,0.00,WeatherDisplay:10.37,2013-02-15 09:43:00,
2013-02-15 04:48:00,23.4,17.8,29.92,NW,316,0.0,0.0,79,0.00,OVC,BKN,0.00,WeatherDisplay:10.37,2013-02-15 09:48:00,
2013-02-15 04:53:00,23.4,17.8,29.92,NW,316,0.0,0.0,79,0.00,OVC,BKN,0.00,WeatherDisplay:10.37,2013-02-15 09:53:00,
2013-02-15 04:58:00,23.3,17.7,29.92,NW,316,0.0,0.0,79,0.00,OVC,BKN,0.00,WeatherDisplay:10.37,2013-02-15 09:58:00,
2013-02-15 05:03:00,23.1,17.8,29.92,NW,315,0.0,0.0,80,0.00,OVC,BKN,0.00,WeatherDisplay:10.37,2013-02-15 10:03:00,
2013-02-15 05:08:00,22.9,17.7,29.92,NW,316,0.0,0.0,80,0.00,OVC,BKN,0.00,WeatherDisplay:10.37,2013-02-15 10:08:00,
2013-02-15 05:13:00,22.9,17.7,29.92,NW,316,0.0,0.0,80,0.00,OVC,BKN,0.00,WeatherDisplay:10.37,2013-02-15 10:13:00,
2013-02-15 05:18:00,23.0,17.7,29.91,NW,315,0.0,0.0,80,0.00,OVC,BKN,0.00,WeatherDisplay:10.37,2013-02-15 10:18:00,
2013-02-15 05:23:00,23.0,17.7,29.91,NW,316,0.0,0.0,80,0.00,OVC,BKN,0.00,WeatherDisplay:10.37,2013-02-15 10:23:00,
2013-02-15 05:28:00,23.0,17.7,29.91,NW,316,0.0,0.0,80,0.00,OVC,BKN,0.00,WeatherDisplay:10.37,2013-02-15 10:28:00,
2013-02-15 05:33:00,22.9,17.4,29.91,NW,316,0.0,0.0,79,0.00,OVC,BKN,0.00,WeatherDisplay:10.37,2013-02-15 10:33:00,
2013-02-15 05:38:00,22.6,17.1,29.91,NW,316,0.0,0.0,79,0.00,OVC,BKN,0.00,WeatherDisplay:10.37,2013-02-15 10:38:00,
2013-02-15 05:43:00,22.4,17.2,29.91,NW,316,0.0,0.0,80,0.00,OVC,BKN,0.00,WeatherDisplay:10.37,2013-02-15 10:43:00,
2013-02-15 05:48:00,22.3,17.1,29.91,NW,315,0.0,0.0,80,0.00,OVC,BKN,0.00,WeatherDisplay:10.37,2013-02-15 10:48:00,
2013-02-15 05:53:00,22.1,16.9,29.91,NW,316,0.0,0.0,80,0.00,OVC,BKN,0.00,WeatherDisplay:10.37,2013-02-15 10:53:00,
2013-02-15 05:58:00,21.9,16.7,29.90,NW,316,0.0,0.0,80,0.00,OVC,BKN,0.00,WeatherDisplay:10.37,2013-02-15 10:58:00,
2013-02-15 06:03:00,21.6,16.4,29.90,NW,316,0.0,0.0,80,0.00,OVC,BKN,0.00,WeatherDisplay:10.37,2013-02-15 11:03:00,
2013-02-15 06:08:00,21.4,16.5,29.90,NW,316,0.0,0.0,81,0.00,OVC,BKN,0.00,WeatherDisplay:10.37,2013-02-15 11:08:00,
2013-02-15 06:13:00,21.1,15.3,29.90,NW,316,0.0,0.0,78,0.00,OVC,BKN,0.00,WeatherDisplay:10.37,2013-02-15 11:13:00,
2013-02-15 06:18:00,20.8,15.3,29.90,NW,315,0.0,0.0,79,0.00,OVC,BKN,0.00,WeatherDisplay:10.37,2013-02-15 11:18:00,
2013-02-15 06:23:00,20.5,15.3,29.90,NW,316,0.0,0.0,80,0.00,OVC,BKN,0.00,WeatherDisplay:10.37,2013-02-15 11:23:00,
2013-02-15 06:28:00,20.4,15.2,29.90,NW,316,0.0,0.0,80,0.00,OVC,BKN,0.00,WeatherDisplay:10.37,2013-02-15 11:28:00,
2013-02-15 06:33:00,20.0,14.8,29.90,NW,316,0.0,0.0,80,0.00,OVC,BKN,0.00,WeatherDisplay:10.37,2013-02-15 11:33:00,
2013-02-15 06:38:00,19.8,15.2,29.90,NW,316,0.0,0.0,82,0.00,OVC,BKN,0.00,WeatherDisplay:10.37,2013-02-15 11:38:00,
2013-02-15 06:43:00,19.8,15.2,29.91,NW,316,0.0,0.0,82,0.00,OVC,BKN,0.00,WeatherDisplay:10.37,2013-02-15 11:43:00,
2013-02-15 06:48:00,19.9,15.6,29.91,NW,316,0.0,0.0,83,0.00,OVC,BKN,0.00,WeatherDisplay:10.37,2013-02-15 11:48:00,
2013-02-15 06:53:00,20.4,16.1,29.91,NW,316,0.0,0.0,83,0.00,OVC,BKN,0.00,WeatherDisplay:10.37,2013-02-15 11:53:00,
2013-02-15 06:58:00,20.8,16.5,29.90,NW,316,0.0,0.0,83,0.00,OVC,BKN,0.00,WeatherDisplay:10.37,2013-02-15 11:58:00,
2013-02-15 07:03:00,21.2,16.8,29.90,NW,316,0.0,0.0,83,0.00,OVC,BKN,0.00,WeatherDisplay:10.37,2013-02-15 12:03:00,
2013-02-15 07:08:00,21.3,16.7,29.90,NW,316,0.0,0.0,82,0.00,OVC,BKN,0.00,WeatherDisplay:10.37,2013-02-15 12:08:00,
2013-02-15 07:13:00,21.4,16.5,29.90,NW,316,0.0,0.0,81,0.00,OVC,BKN,0.00,WeatherDisplay:10.37,2013-02-15 12:13:00,
2013-02-15 07:18:00,21.5,16.6,29.90,NW,315,0.0,0.0,81,0.00,OVC,BKN,0.00,WeatherDisplay:10.37,2013-02-15 12:18:00,
2013-02-15 07:23:00,21.8,16.9,29.90,NW,316,0.0,0.0,81,0.00,OVC,BKN,0.00,WeatherDisplay:10.37,2013-02-15 12:23:00,
2013-02-15 07:28:00,22.3,17.4,29.90,NW,316,0.0,0.0,81,0.00,OVC,BKN,0.00,WeatherDisplay:10.37,2013-02-15 12:28:00,
2013-02-15 07:33:00,22.6,17.4,29.90,NW,316,0.0,0.0,80,0.00,OVC,BKN,0.00,WeatherDisplay:10.37,2013-02-15 12:33:00,
2013-02-15 07:38:00,22.7,17.5,29.91,NW,316,0.0,0.0,80,0.00,OVC,BKN,0.00,WeatherDisplay:10.37,2013-02-15 12:38:00,
2013-02-15 07:43:00,22.9,17.7,29.90,NW,316,0.0,0.0,80,0.00,OVC,BKN,0.00,WeatherDisplay:10.37,2013-02-15 12:43:00,
2013-02-15 07:48:00,23.1,17.6,29.90,NW,315,0.0,0.0,79,0.00,OVC,BKN,0.00,WeatherDisplay:10.37,2013-02-15 12:48:00,
2013-02-15 07:53:00,23.2,17.7,29.91,NW,316,0.0,0.0,79,0.00,OVC,BKN,0.00,WeatherDisplay:10.37,2013-02-15 12:53:00,
2013-02-15 07:58:00,23.4,17.8,29.91,NW,316,0.0,0.0,79,0.00,OVC,BKN,0.00,WeatherDisplay:10.37,2013-02-15 12:58:00,
2013-02-15 08:03:00,23.7,17.8,29.90,NW,316,0.0,0.0,78,0.00,OVC,BKN,0.00,WeatherDisplay:10.37,2013-02-15 13:03:00,
2013-02-15 08:08:00,23.9,18.0,29.90,NW,316,0.0,0.0,78,0.00,OVC,BKN,0.00,WeatherDisplay:10.37,2013-02-15 13:08:00,
2013-02-15 08:13:00,24.3,18.1,29.90,NW,315,0.0,0.0,77,0.00,OVC,BKN,0.00,WeatherDisplay:10.37,2013-02-15 13:13:00,
2013-02-15 08:18:00,24.6,18.4,29.90,NW,316,0.0,0.0,77,0.00,OVC,BKN,0.00,WeatherDisplay:10.37,2013-02-15 13:18:00,
2013-02-15 08:23:00,24.9,18.4,29.91,NW,316,0.0,0.0,76,0.00,OVC,BKN,0.00,WeatherDisplay:10.37,2013-02-15 13:23:00,
2013-02-15 08:28:00,25.1,18.3,29.91,NW,316,0.0,0.0,75,0.00,OVC,BKN,0.00,WeatherDisplay:10.37,2013-02-15 13:28:00,
2013-02-15 08:33:00,25.2,18.7,29.91,NW,316,0.0,0.0,76,0.00,OVC,BKN,0.00,WeatherDisplay:10.37,2013-02-15 13:33:00,
2013-02-15 08:38:00,25.2,18.4,29.91,NW,316,0.0,0.0,75,0.00,OVC,BKN,0.00,WeatherDisplay:10.37,2013-02-15 13:38:00,
2013-02-15 08:43:00,25.2,18.1,29.91,NW,315,0.0,0.0,74,0.00,OVC,BKN,0.00,WeatherDisplay:10.37,2013-02-15 13:43:00,
2013-02-15 08:48:00,25.3,18.2,29.91,NW,316,0.0,0.0,74,0.00,OVC,BKN,0.00,WeatherDisplay:10.37,2013-02-15 13:48:00,
2013-02-15 08:53:00,25.5,18.7,29.91,NW,316,0.0,0.0,75,0.00,OVC,BKN,0.00,WeatherDisplay:10.37,2013-02-15 13:53:00,
2013-02-15 08:58:00,25.7,18.9,29.91,NW,315,0.0,0.0,75,0.00,OVC,BKN,0.00,WeatherDisplay:10.37,2013-02-15 13:58:00,
2013-02-15 09:03:00,25.8,18.7,29.91,NW,315,0.0,0.0,74,0.00,OVC,BKN,0.00,WeatherDisplay:10.37,2013-02-15 14:03:00,
2013-02-15 09:08:00,26.0,18.8,29.90,NW,316,0.0,0.0,74,0.00,OVC,BKN,0.00,WeatherDisplay:10.37,2013-02-15 14:08:00,
2013-02-15 09:13:00,26.3,19.1,29.91,NW,316,0.0,0.0,74,0.00,OVC,BKN,0.00,WeatherDisplay:10.37,2013-02-15 14:13:00,
2013-02-15 09:18:00,26.7,19.5,29.90,NW,316,0.0,0.0,74,0.00,OVC,BKN,0.00,WeatherDisplay:10.37,2013-02-15 14:18:00,
2013-02-15 09:23:00,27.2,20.0,29.90,NW,305,1.1,1.1,74,0.00,OVC,BKN,0.00,WeatherDisplay:10.37,2013-02-15 14:23:00,
2013-02-15 09:28:00,27.7,20.2,29.90,SSW,207,4.6,4.6,73,0.00,OVC,BKN,0.00,WeatherDisplay:10.37,2013-02-15 14:28:00,
2013-02-15 09:33:00,28.1,20.6,29.90,SSW,207,0.0,0.0,73,0.00,OVC,BKN,0.00,WeatherDisplay:10.37,2013-02-15 14:33:00,
2013-02-15 09:38:00,28.5,20.9,29.90,SSW,207,0.0,0.0,73,0.00,OVC,BKN,0.00,WeatherDisplay:10.37,2013-02-15 14:38:00,
2013-02-15 09:43:00,28.9,21.3,29.90,SSW,207,0.0,0.0,73,0.00,OVC,BKN,0.00,WeatherDisplay:10.37,2013-02-15 14:43:00,
2013-02-15 09:48:00,29.7,21.8,29.89,SSW,207,0.0,0.0,72,0.00,OVC,BKN,0.00,WeatherDisplay:10.37,2013-02-15 14:48:00,
2013-02-15 09:53:00,30.7,22.4,29.89,SSW,206,1.1,0.0,71,0.00,OVC,BKN,0.00,WeatherDisplay:10.37,2013-02-15 14:53:00,
2013-02-15 09:58:00,31.6,23.3,29.89,SSW,193,4.6,4.6,71,0.00,OVC,BKN,0.00,WeatherDisplay:10.37,2013-02-15 14:58:00,
2013-02-15 10:03:00,32.6,23.9,29.89,SW,234,5.8,5.8,70,0.00,OVC,BKN,0.00,WeatherDisplay:10.37,2013-02-15 15:03:00,
2013-02-15 10:08:00,33.3,24.6,29.89,SW,220,3.5,3.5,70,0.00,OVC,BKN,0.00,WeatherDisplay:10.37,2013-02-15 15:08:00,
2013-02-15 10:13:00,34.0,24.5,29.89,South,177,4.6,4.6,68,0.00,OVC,BKN,0.00,WeatherDisplay:10.37,2013-02-15 15:13:00,
2013-02-15 10:18:00,34.4,24.2,29.88,SE,131,6.9,6.9,66,0.00,OVC,BKN,0.00,WeatherDisplay:10.37,2013-02-15 15:18:00,
2013-02-15 10:23:00,34.6,24.0,29.88,SSE,168,3.5,3.5,65,0.00,OVC,BKN,0.00,WeatherDisplay:10.37,2013-02-15 15:23:00,
2013-02-15 10:28:00,34.7,24.1,29.88,SSE,159,2.3,2.3,65,0.00,OVC,BKN,0.00,WeatherDisplay:10.37,2013-02-15 15:28:00,
2013-02-15 10:33:00,35.0,24.4,29.89,SSW,211,4.0,4.0,65,0.00,OVC,BKN,0.00,WeatherDisplay:10.37,2013-02-15 15:33:00,
2013-02-15 10:38:00,35.1,24.5,29.89,SW,224,2.3,2.3,65,0.00,OVC,BKN,0.00,WeatherDisplay:10.37,2013-02-15 15:38:00,
2013-02-15 10:43:00,35.7,25.1,29.89,South,178,5.8,5.8,65,0.00,OVC,BKN,0.00,WeatherDisplay:10.37,2013-02-15 15:43:00,
2013-02-15 10:48:00,36.2,25.6,29.89,SSE,149,4.0,4.0,65,0.00,OVC,BKN,0.00,WeatherDisplay:10.37,2013-02-15 15:48:00,
2013-02-15 10:53:00,36.6,25.9,29.89,South,173,4.6,4.6,65,0.00,OVC,BKN,0.00,WeatherDisplay:10.37,2013-02-15 15:53:00,
2013-02-15 10:58:00,37.0,25.9,29.89,South,176,2.3,2.3,64,0.00,OVC,BKN,0.00,WeatherDisplay:10.37,2013-02-15 15:58:00,
2013-02-15 11:03:00,37.4,25.9,29.89,SSW,204,4.6,4.6,63,0.00,OVC,BKN,0.00,WeatherDisplay:10.37,2013-02-15 16:03:00,
2013-02-15 11:08:00,37.9,27.5,29.88,SW,216,4.6,4.6,66,0.00,OVC,BKN,0.00,WeatherDisplay:10.37,2013-02-15 16:08:00,
2013-02-15 11:13:00,38.3,26.4,29.88,South,171,3.5,3.5,62,0.00,OVC,BKN,0.00,WeatherDisplay:10.37,2013-02-15 16:13:00,
2013-02-15 11:18:00,38.3,26.0,29.88,SSW,199,3.5,3.5,61,0.00,OVC,BKN,0.00,WeatherDisplay:10.37,2013-02-15 16:18:00,
2013-02-15 11:23:00,38.5,26.2,29.88,SSW,197,2.3,2.3,61,0.00,OVC,BKN,0.00,WeatherDisplay:10.37,2013-02-15 16:23:00,
2013-02-15 11:28:00,38.8,26.5,29.88,SSE,150,5.8,5.8,61,0.00,OVC,BKN,0.00,WeatherDisplay:10.37,2013-02-15 16:28:00,
2013-02-15 11:33:00,38.8,26.1,29.88,ESE,120,4.6,4.6,60,0.00,OVC,BKN,0.00,WeatherDisplay:10.37,2013-02-15 16:33:00,
2013-02-15 11:38:00,38.7,26.0,29.88,ESE,121,5.8,5.8,60,0.00,OVC,BKN,0.00,WeatherDisplay:10.37,2013-02-15 16:38:00,
2013-02-15 11:43:00,38.8,25.7,29.87,SE,138,8.1,8.1,59,0.00,OVC,BKN,0.00,WeatherDisplay:10.37,2013-02-15 16:43:00,
2013-02-15 11:48:00,38.4,25.7,29.87,South,174,3.5,3.5,60,0.00,OVC,BKN,0.00,WeatherDisplay:10.37,2013-02-15 16:48:00,
2013-02-15 11:53:00,38.3,25.2,29.87,SE,127,2.3,2.3,59,0.00,OVC,BKN,0.00,WeatherDisplay:10.37,2013-02-15 16:53:00,
2013-02-15 11:58:00,38.5,25.8,29.87,South,183,4.6,4.6,60,0.00,OVC,BKN,0.00,WeatherDisplay:10.37,2013-02-15 16:58:00,
2013-02-15 12:03:00,38.7,26.4,29.87,WSW,253,5.8,5.8,61,0.00,OVC,BKN,0.00,WeatherDisplay:10.37,2013-02-15 17:03:00,
2013-02-15 12:08:00,39.0,26.3,29.87,SW,226,3.5,3.5,60,0.00,OVC,BKN,0.00,WeatherDisplay:10.37,2013-02-15 17:08:00,
2013-02-15 12:13:00,39.3,26.2,29.87,South,187,4.0,4.0,59,0.00,OVC,BKN,0.00,WeatherDisplay:10.37,2013-02-15 17:13:00,
2013-02-15 12:18:00,39.3,26.2,29.87,SW,217,5.8,5.8,59,0.00,OVC,BKN,0.00,WeatherDisplay:10.37,2013-02-15 17:18:00,
2013-02-15 12:23:00,39.2,26.1,29.86,SW,216,3.5,3.5,59,0.00,OVC,BKN,0.00,WeatherDisplay:10.37,2013-02-15 17:23:00,
2013-02-15 12:28:00,39.2,26.5,29.86,SW,216,3.5,3.5,60,0.00,OVC,BKN,0.00,WeatherDisplay:10.37,2013-02-15 17:28:00,
2013-02-15 12:33:00,39.2,26.5,29.86,SSW,200,3.5,3.5,60,0.00,OVC,BKN,0.00,WeatherDisplay:10.37,2013-02-15 17:33:00,
2013-02-15 12:38:00,39.2,26.1,29.86,South,174,8.1,8.1,59,0.01,RA,BKN,0.01,WeatherDisplay:10.37,2013-02-15 17:38:00,
2013-02-15 12:43:00,39.3,26.2,29.86,SSW,203,2.3,2.3,59,0.01,RA,BKN,0.01,WeatherDisplay:10.37,2013-02-15 17:43:00,
2013-02-15 12:48:00,39.3,26.2,29.85,SW,225,2.3,2.3,59,0.01,OVC,BKN,0.01,WeatherDisplay:10.37,2013-02-15 17:48:00,
2013-02-15 12:53:00,39.4,25.8,29.85,SW,226,3.5,3.5,58,0.01,OVC,BKN,0.01,WeatherDisplay:10.37,2013-02-15 17:53:00,
2013-02-15 12:58:00,40.0,26.4,29.84,SW,232,4.6,4.6,58,0.01,OVC,BKN,0.01,WeatherDisplay:10.37,2013-02-15 17:58:00,
2013-02-15 13:03:00,40.9,27.2,29.84,SSW,209,3.5,3.5,58,0.01,OVC,BKN,0.01,WeatherDisplay:10.37,2013-02-15 18:03:00,
2013-02-15 13:08:00,41.4,27.7,29.84,SSW,200,4.6,4.6,58,0.01,OVC,BKN,0.01,WeatherDisplay:10.37,2013-02-15 18:08:00,
2013-02-15 13:13:00,41.9,28.6,29.84,SE,135,3.5,3.5,59,0.01,OVC,BKN,0.01,WeatherDisplay:10.37,2013-02-15 18:13:00,
2013-02-15 13:18:00,42.3,29.0,29.84,SSW,197,3.5,3.5,59,0.01,OVC,BKN,0.01,WeatherDisplay:10.37,2013-02-15 18:18:00,
2013-02-15 13:23:00,42.5,28.8,29.84,SSE,162,5.0,5.0,58,0.01,OVC,BKN,0.01,WeatherDisplay:10.37,2013-02-15 18:23:00,
2013-02-15 13:28:00,42.4,28.7,29.84,South,189,9.2,9.2,58,0.01,OVC,BKN,0.01,WeatherDisplay:10.37,2013-02-15 18:28:00,
2013-02-15 13:33:00,42.3,28.6,29.84,SSE,166,9.2,9.2,58,0.01,OVC,BKN,0.01,WeatherDisplay:10.37,2013-02-15 18:33:00,
2013-02-15 13:38:00,42.5,28.8,29.84,South,182,5.8,5.8,58,0.00,OVC,BKN,0.01,WeatherDisplay:10.37,2013-02-15 18:38:00,
2013-02-15 13:43:00,42.7,28.9,29.84,SSE,147,6.9,6.9,58,0.00,OVC,BKN,0.01,WeatherDisplay:10.37,2013-02-15 18:43:00,
2013-02-15 13:48:00,42.8,29.0,29.84,SSE,167,6.0,6.0,58,0.00,OVC,BKN,0.01,WeatherDisplay:10.37,2013-02-15 18:48:00,
2013-02-15 13:53:00,43.0,28.4,29.84,SSE,154,9.2,9.2,56,0.00,OVC,BKN,0.01,WeatherDisplay:10.37,2013-02-15 18:53:00,
2013-02-15 13:58:00,43.1,28.9,29.84,South,188,10.4,10.4,57,0.00,OVC,BKN,0.01,WeatherDisplay:10.37,2013-02-15 18:58:00,
2013-02-15 14:03:00,43.2,29.0,29.84,SSW,201,4.6,4.6,57,0.00,OVC,BKN,0.01,WeatherDisplay:10.37,2013-02-15 19:03:00,
2013-02-15 14:08:00,43.3,29.1,29.84,SSW,192,5.8,5.8,57,0.00,OVC,BKN,0.01,WeatherDisplay:10.37,2013-02-15 19:08:00,
2013-02-15 14:13:00,43.4,29.2,29.84,SE,143,15.0,15.0,57,0.00,OVC,BKN,0.01,WeatherDisplay:10.37,2013-02-15 19:13:00,
2013-02-15 14:18:00,43.2,29.0,29.84,SW,222,6.9,6.9,57,0.00,OVC,BKN,0.01,WeatherDisplay:10.37,2013-02-15 19:18:00,
2013-02-15 14:23:00,43.2,29.0,29.84,WSW,240,5.8,5.8,57,0.00,OVC,BKN,0.01,WeatherDisplay:10.37,2013-02-15 19:23:00,
2013-02-15 14:28:00,43.4,29.2,29.84,South,183,5.8,5.8,57,0.00,OVC,BKN,0.01,WeatherDisplay:10.37,2013-02-15 19:28:00,
2013-02-15 14:33:00,43.5,29.3,29.84,SW,225,4.6,4.6,57,0.00,OVC,BKN,0.01,WeatherDisplay:10.37,2013-02-15 19:33:00,
2013-02-15 14:38:00,43.7,29.5,29.84,SW,223,4.0,4.0,57,0.00,OVC,BKN,0.01,WeatherDisplay:10.37,2013-02-15 19:38:00,
2013-02-15 14:43:00,43.9,28.8,29.84,WSW,237,5.8,5.8,55,0.00,OVC,BKN,0.01,WeatherDisplay:10.37,2013-02-15 19:43:00,
2013-02-15 14:48:00,43.9,28.8,29.84,SW,221,5.8,5.8,55,0.00,OVC,BKN,0.01,WeatherDisplay:10.37,2013-02-15 19:48:00,
2013-02-15 14:53:00,43.8,28.7,29.84,SSW,194,5.8,5.8,55,0.00,OVC,BKN,0.01,WeatherDisplay:10.37,2013-02-15 19:53:00,
2013-02-15 14:58:00,44.0,28.9,29.84,SW,216,4.6,4.6,55,0.00,OVC,BKN,0.01,WeatherDisplay:10.37,2013-02-15 19:58:00,
2013-02-15 15:03:00,44.0,28.9,29.84,WSW,237,3.5,3.5,55,0.00,OVC,BKN,0.01,WeatherDisplay:10.37,2013-02-15 20:03:00,
2013-02-15 15:08:00,44.0,28.9,29.84,SW,228,4.6,4.6,55,0.00,OVC,BKN,0.01,WeatherDisplay:10.37,2013-02-15 20:08:00,
2013-02-15 15:13:00,43.9,28.3,29.84,SW,224,6.0,6.0,54,0.00,OVC,BKN,0.01,WeatherDisplay:10.37,2013-02-15 20:13:00,
2013-02-15 15:18:00,44.1,28.5,29.84,SW,222,3.5,3.5,54,0.00,OVC,BKN,0.01,WeatherDisplay:10.37,2013-02-15 20:18:00,
2013-02-15 15:23:00,44.3,28.7,29.84,SW,218,3.5,3.5,54,0.00,OVC,BKN,0.01,WeatherDisplay:10.37,2013-02-15 20:23:00,
2013-02-15 15:28:00,44.3,29.1,29.84,West,279,4.6,4.6,55,0.00,OVC,BKN,0.01,WeatherDisplay:10.37,2013-02-15 20:28:00,
2013-02-15 15:33:00,44.1,28.9,29.84,WSW,239,3.5,3.5,55,0.00,OVC,BKN,0.01,WeatherDisplay:10.37,2013-02-15 20:33:00,
2013-02-15 15:38:00,43.8,29.1,29.84,SSE,161,5.8,5.8,56,0.00,OVC,BKN,0.01,WeatherDisplay:10.37,2013-02-15 20:38:00,
2013-02-15 15:43:00,43.8,29.1,29.84,SW,230,5.8,5.8,56,0.00,OVC,BKN,0.01,WeatherDisplay:10.37,2013-02-15 20:43:00,
2013-02-15 15:48:00,44.0,29.7,29.84,SSW,196,4.6,4.6,57,0.00,OVC,BKN,0.01,WeatherDisplay:10.37,2013-02-15 20:48:00,
2013-02-15 15:53:00,44.0,29.3,29.84,WSW,241,5.8,5.8,56,0.00,OVC,BKN,0.01,WeatherDisplay:10.37,2013-02-15 20:53:00,
2013-02-15 15:58:00,43.9,29.6,29.84,SSW,208,5.8,5.8,57,0.00,OVC,BKN,0.01,WeatherDisplay:10.37,2013-02-15 20:58:00,
2013-02-15 16:10:00,43.0,30.1,29.84,SE,143,9.2,0.0,60,0.00,CLR,BKN,0.01,WeatherDisplay:10.37,2013-02-15 21:10:00,
2013-02-15 16:16:00,42.4,29.9,29.84,SE,137,8.1,8.1,61,0.00,RA,BKN,0.01,WeatherDisplay:10.37,2013-02-15 21:16:00,
2013-02-15 16:21:00,41.9,30.2,29.84,SSW,205,6.9,6.9,63,0.00,RA,BKN,0.01,WeatherDisplay:10.37,2013-02-15 21:21:00,
2013-02-15 16:26:00,41.6,30.3,29.84,SSE,168,7.0,7.0,64,0.00,CLR,BKN,0.01,WeatherDisplay:10.37,2013-02-15 21:26:00,
2013-02-15 16:31:00,41.1,29.8,29.84,South,181,8.1,8.1,64,0.00,CLR,BKN,0.01,WeatherDisplay:10.37,2013-02-15 21:31:00,
2013-02-15 16:36:00,40.9,30.0,29.84,SSW,194,3.5,3.5,65,0.00,CLR,BKN,0.01,WeatherDisplay:10.37,2013-02-15 21:36:00,
2013-02-15 16:41:00,40.6,29.7,29.84,SSW,207,3.5,3.5,65,0.00,CLR,BKN,0.01,WeatherDisplay:10.37,2013-02-15 21:41:00,
2013-02-15 16:46:00,40.3,29.8,29.84,SSE,160,3.5,3.5,66,0.00,CLR,BKN,0.01,WeatherDisplay:10.37,2013-02-15 21:46:00,
2013-02-15 16:51:00,40.0,29.6,29.84,South,182,4.6,4.6,66,0.00,CLR,BKN,0.01,WeatherDisplay:10.37,2013-02-15 21:51:00,
2013-02-15 16:56:00,39.7,29.6,29.85,SSW,198,3.5,3.5,67,0.00,CLR,BKN,0.01,WeatherDisplay:10.37,2013-02-15 21:56:00,
2013-02-15 17:01:00,39.3,29.6,29.85,SSW,202,8.1,8.1,68,0.00,CLR,BKN,0.01,WeatherDisplay:10.37,2013-02-15 22:01:00,
2013-02-15 17:06:00,39.1,29.4,29.85,South,184,2.3,2.3,68,0.00,CLR,BKN,0.01,WeatherDisplay:10.37,2013-02-15 22:06:00,
2013-02-15 17:11:00,38.8,29.5,29.85,SSE,157,5.8,5.8,69,0.00,CLR,BKN,0.01,WeatherDisplay:10.37,2013-02-15 22:11:00,
2013-02-15 17:16:00,38.6,29.3,29.85,South,180,6.9,6.9,69,0.00,CLR,BKN,0.01,WeatherDisplay:10.37,2013-02-15 22:16:00,
2013-02-15 17:21:00,38.3,29.4,29.85,SE,137,3.0,3.0,70,0.00,CLR,BKN,0.01,WeatherDisplay:10.37,2013-02-15 22:21:00,
2013-02-15 17:26:00,38.2,29.3,29.85,SSE,165,3.5,3.5,70,0.00,CLR,BKN,0.01,WeatherDisplay:10.37,2013-02-15 22:26:00,
2013-02-15 17:31:00,38.1,29.2,29.85,South,176,1.1,1.1,70,0.00,CLR,BKN,0.01,WeatherDisplay:10.37,2013-02-15 22:31:00,
2013-02-15 17:36:00,37.9,29.0,29.85,South,176,2.3,2.3,70,0.00,CLR,BKN,0.01,WeatherDisplay:10.37,2013-02-15 22:36:00,
2013-02-15 17:41:00,37.6,29.0,29.85,South,182,2.3,2.3,71,0.00,CLR,BKN,0.01,WeatherDisplay:10.37,2013-02-15 22:41:00,
2013-02-15 17:46:00,37.5,28.9,29.85,South,188,2.3,2.3,71,0.00,CLR,BKN,0.01,WeatherDisplay:10.37,2013-02-15 22:46:00,
2013-02-15 17:51:00,37.4,29.2,29.85,South,175,3.5,3.5,72,0.00,CLR,BKN,0.01,WeatherDisplay:10.37,2013-02-15 22:51:00,
2013-02-15 17:56:00,37.5,29.3,29.85,South,181,3.5,3.5,72,0.00,CLR,BKN,0.01,WeatherDisplay:10.37,2013-02-15 22:56:00,
2013-02-15 18:01:00,37.5,29.3,29.85,SSW,205,3.5,3.5,72,0.00,CLR,BKN,0.01,WeatherDisplay:10.37,2013-02-15 23:01:00,
2013-02-15 18:06:00,37.2,29.3,29.85,SSW,206,3.5,3.5,73,0.00,CLR,BKN,0.01,WeatherDisplay:10.37,2013-02-15 23:06:00,
2013-02-15 18:11:00,37.0,29.5,29.85,SSW,213,3.5,3.5,74,0.00,CLR,BKN,0.01,WeatherDisplay:10.37,2013-02-15 23:11:00,
2013-02-15 18:16:00,36.9,29.4,29.85,South,187,3.5,3.5,74,0.00,CLR,BKN,0.01,WeatherDisplay:10.37,2013-02-15 23:16:00,
2013-02-15 18:21:00,36.9,29.7,29.85,SSW,206,4.0,4.0,75,0.00,CLR,BKN,0.01,WeatherDisplay:10.37,2013-02-15 23:21:00,
2013-02-15 18:26:00,36.8,29.6,29.85,South,191,3.5,3.5,75,0.00,CLR,BKN,0.01,WeatherDisplay:10.37,2013-02-15 23:26:00,
2013-02-15 18:31:00,36.7,29.8,29.85,SSE,161,5.8,5.8,76,0.00,CLR,BKN,0.01,WeatherDisplay:10.37,2013-02-15 23:31:00,
2013-02-15 18:36:00,36.7,29.8,29.85,SW,227,3.5,3.5,76,0.00,CLR,BKN,0.01,WeatherDisplay:10.37,2013-02-15 23:36:00,
2013-02-15 18:41:00,36.7,30.2,29.85,SW,226,2.3,2.3,77,0.00,CLR,BKN,0.01,WeatherDisplay:10.37,2013-02-15 23:41:00,
2013-02-15 18:46:00,36.7,30.2,29.85,SW,226,2.3,2.3,77,0.00,CLR,BKN,0.01,WeatherDisplay:10.37,2013-02-15 23:46:00,
2013-02-15 18:51:00,36.5,30.0,29.85,SW,226,1.1,1.1,77,0.00,CLR,BKN,0.01,WeatherDisplay:10.37,2013-02-15 23:51:00,
2013-02-15 18:56:00,36.4,30.2,29.85,SW,226,3.5,3.5,78,0.00,CLR,BKN,0.01,WeatherDisplay:10.37,2013-02-15 23:56:00,
2013-02-15 19:01:00,36.3,30.1,29.85,SW,226,1.1,0.0,78,0.00,CLR,BKN,0.01,WeatherDisplay:10.37,2013-02-16 00:01:00,
2013-02-15 19:06:00,36.0,30.1,29.86,SW,226,0.0,0.0,79,0.00,CLR,BKN,0.01,WeatherDisplay:10.37,2013-02-16 00:06:00,
2013-02-15 19:11:00,35.8,29.9,29.86,SW,225,3.5,3.5,79,0.00,CLR,BKN,0.01,WeatherDisplay:10.37,2013-02-16 00:11:00,
2013-02-15 19:16:00,35.7,29.8,29.86,SW,225,0.0,0.0,79,0.00,CLR,BKN,0.01,WeatherDisplay:10.37,2013-02-16 00:16:00,
2013-02-15 19:21:00,35.1,29.2,29.86,SW,225,0.0,0.0,79,0.00,CLR,BKN,0.01,WeatherDisplay:10.37,2013-02-16 00:21:00,
2013-02-15 19:26:00,34.6,29.4,29.86,SW,225,0.0,0.0,81,0.00,CLR,BKN,0.01,WeatherDisplay:10.37,2013-02-16 00:26:00,
2013-02-15 19:31:00,34.3,29.1,29.86,SW,225,0.0,0.0,81,0.00,CLR,BKN,0.01,WeatherDisplay:10.37,2013-02-16 00:31:00,
2013-02-15 19:36:00,34.2,29.6,29.86,SW,225,0.0,0.0,83,0.00,CLR,BKN,0.01,WeatherDisplay:10.37,2013-02-16 00:36:00,
2013-02-15 19:41:00,34.4,29.5,29.86,SW,225,0.0,0.0,82,0.00,CLR,BKN,0.01,WeatherDisplay:10.37,2013-02-16 00:41:00,
2013-02-15 19:46:00,33.2,28.6,29.87,SW,225,0.0,0.0,83,0.00,CLR,BKN,0.01,WeatherDisplay:10.37,2013-02-16 00:46:00,
2013-02-15 19:51:00,32.8,28.2,29.87,SW,225,0.0,0.0,83,0.00,CLR,BKN,0.01,WeatherDisplay:10.37,2013-02-16 00:51:00,
2013-02-15 19:56:00,32.4,28.1,29.87,SW,225,1.1,1.1,84,0.00,CLR,BKN,0.01,WeatherDisplay:10.37,2013-02-16 00:56:00,
2013-02-15 20:01:00,31.9,27.9,29.87,SW,225,0.0,0.0,85,0.00,CLR,BKN,0.01,WeatherDisplay:10.37,2013-02-16 01:01:00,
2013-02-15 20:06:00,31.9,28.2,29.87,SW,225,0.0,0.0,86,0.00,CLR,BKN,0.01,WeatherDisplay:10.37,2013-02-16 01:06:00,
2013-02-15 20:11:00,31.9,28.5,29.87,SW,225,0.0,0.0,87,0.00,CLR,BKN,0.01,WeatherDisplay:10.37,2013-02-16 01:11:00,
2013-02-15 20:16:00,31.7,28.0,29.88,SW,225,0.0,0.0,86,0.00,CLR,BKN,0.01,WeatherDisplay:10.37,2013-02-16 01:16:00,
2013-02-15 20:21:00,31.3,27.6,29.88,SW,225,0.0,0.0,86,0.00,CLR,BKN,0.01,WeatherDisplay:10.37,2013-02-16 01:21:00,
2013-02-15 20:26:00,31.0,27.6,29.88,SW,225,0.0,0.0,87,0.00,CLR,BKN,0.01,WeatherDisplay:10.37,2013-02-16 01:26:00,
2013-02-15 20:31:00,30.8,27.4,29.88,SW,225,0.0,0.0,87,0.00,CLR,BKN,0.01,WeatherDisplay:10.37,2013-02-16 01:31:00,
2013-02-15 20:36:00,30.5,27.4,29.87,SW,225,0.0,0.0,88,0.00,CLR,BKN,0.01,WeatherDisplay:10.37,2013-02-16 01:36:00,
2013-02-15 20:41:00,30.4,27.3,29.87,SW,225,0.0,0.0,88,0.00,CLR,BKN,0.01,WeatherDisplay:10.37,2013-02-16 01:41:00,
2013-02-15 20:46:00,30.3,27.2,29.87,SW,225,0.0,0.0,88,0.00,CLR,BKN,0.01,WeatherDisplay:10.37,2013-02-16 01:46:00,
2013-02-15 20:51:00,30.2,27.3,29.87,SW,225,0.0,0.0,89,0.00,CLR,BKN,0.01,WeatherDisplay:10.37,2013-02-16 01:51:00,
2013-02-15 20:56:00,30.0,27.2,29.87,SW,225,0.0,0.0,89,0.00,CLR,BKN,0.01,WeatherDisplay:10.37,2013-02-16 01:56:00,
2013-02-15 21:01:00,29.9,27.3,29.87,SW,225,0.0,0.0,90,0.00,CLR,BKN,0.01,WeatherDisplay:10.37,2013-02-16 02:01:00,
2013-02-15 21:06:00,29.9,27.3,29.88,SW,225,0.0,0.0,90,0.00,CLR,BKN,0.01,WeatherDisplay:10.37,2013-02-16 02:06:00,
2013-02-15 21:11:00,29.5,26.7,29.88,SW,225,0.0,0.0,89,0.00,CLR,BKN,0.01,WeatherDisplay:10.37,2013-02-16 02:11:00,
2013-02-15 21:16:00,29.1,26.3,29.88,SW,225,0.0,0.0,89,0.00,CLR,BKN,0.01,WeatherDisplay:10.37,2013-02-16 02:16:00,
2013-02-15 21:21:00,28.8,26.0,29.88,SW,225,0.0,0.0,89,0.00,CLR,BKN,0.01,WeatherDisplay:10.37,2013-02-16 02:21:00,
2013-02-15 21:26:00,28.5,25.7,29.88,SW,225,0.0,0.0,89,0.00,CLR,BKN,0.01,WeatherDisplay:10.37,2013-02-16 02:26:00,
2013-02-15 21:31:00,28.3,24.9,29.88,SW,225,0.0,0.0,87,0.00,CLR,BKN,0.01,WeatherDisplay:10.37,2013-02-16 02:31:00,
2013-02-15 21:36:00,28.2,25.1,29.88,SW,225,0.0,0.0,88,0.00,CLR,BKN,0.01,WeatherDisplay:10.37,2013-02-16 02:36:00,
2013-02-15 21:41:00,28.6,25.8,29.88,SW,225,0.0,0.0,89,0.00,CLR,BKN,0.01,WeatherDisplay:10.37,2013-02-16 02:41:00,
2013-02-15 21:46:00,28.6,25.8,29.88,SW,225,0.0,0.0,89,0.00,CLR,BKN,0.01,WeatherDisplay:10.37,2013-02-16 02:46:00,
2013-02-15 21:51:00,28.4,25.6,29.88,SW,225,0.0,0.0,89,0.00,CLR,BKN,0.01,WeatherDisplay:10.37,2013-02-16 02:51:00,
2013-02-15 21:56:00,28.2,25.4,29.88,SW,225,0.0,0.0,89,0.00,CLR,BKN,0.01,WeatherDisplay:10.37,2013-02-16 02:56:00,
2013-02-15 22:01:00,28.1,25.3,29.88,SW,225,0.0,0.0,89,0.00,CLR,BKN,0.01,WeatherDisplay:10.37,2013-02-16 03:01:00,
2013-02-15 22:06:00,27.9,25.1,29.88,SW,225,0.0,0.0,89,0.00,CLR,BKN,0.01,WeatherDisplay:10.37,2013-02-16 03:06:00,
2013-02-15 22:11:00,27.8,25.0,29.88,SW,225,0.0,0.0,89,0.00,CLR,BKN,0.01,WeatherDisplay:10.37,2013-02-16 03:11:00,
2013-02-15 22:16:00,27.6,24.8,29.88,SW,225,0.0,0.0,89,0.00,CLR,BKN,0.01,WeatherDisplay:10.37,2013-02-16 03:16:00,
2013-02-15 22:21:00,27.6,24.8,29.88,SW,225,0.0,0.0,89,0.00,CLR,BKN,0.01,WeatherDisplay:10.37,2013-02-16 03:21:00,
2013-02-15 22:26:00,27.3,24.5,29.88,SW,225,0.0,0.0,89,0.00,CLR,BKN,0.01,WeatherDisplay:10.37,2013-02-16 03:26:00,
2013-02-15 22:31:00,27.5,25.0,29.88,SW,225,0.0,0.0,90,0.00,CLR,BKN,0.01,WeatherDisplay:10.37,2013-02-16 03:31:00,
2013-02-15 22:36:00,27.6,25.3,29.88,SW,225,0.0,0.0,91,0.00,CLR,BKN,0.01,WeatherDisplay:10.37,2013-02-16 03:36:00,
2013-02-15 22:41:00,27.6,25.1,29.88,SW,225,0.0,0.0,90,0.00,CLR,BKN,0.01,WeatherDisplay:10.37,2013-02-16 03:41:00,
2013-02-15 22:46:00,27.6,25.3,29.88,SW,225,0.0,0.0,91,0.00,CLR,BKN,0.01,WeatherDisplay:10.37,2013-02-16 03:46:00,
2013-02-15 22:51:00,27.8,25.5,29.88,SW,225,0.0,0.0,91,0.00,CLR,BKN,0.01,WeatherDisplay:10.37,2013-02-16 03:51:00,
2013-02-15 22:56:00,27.7,25.4,29.88,SW,225,0.0,0.0,91,0.00,CLR,BKN,0.01,WeatherDisplay:10.37,2013-02-16 03:56:00,
2013-02-15 23:01:00,27.5,25.2,29.88,SW,225,0.0,0.0,91,0.00,CLR,BKN,0.01,WeatherDisplay:10.37,2013-02-16 04:01:00,
2013-02-15 23:06:00,27.3,25.0,29.89,SW,225,0.0,0.0,91,0.00,CLR,BKN,0.01,WeatherDisplay:10.37,2013-02-16 04:06:00,
2013-02-15 23:11:00,27.4,25.1,29.89,SW,225,0.0,0.0,91,0.00,CLR,BKN,0.01,WeatherDisplay:10.37,2013-02-16 04:11:00,
2013-02-15 23:16:00,27.4,25.1,29.89,SW,225,0.0,0.0,91,0.00,CLR,BKN,0.01,WeatherDisplay:10.37,2013-02-16 04:16:00,
2013-02-15 23:21:00,27.4,25.1,29.89,SW,225,0.0,0.0,91,0.00,CLR,BKN,0.01,WeatherDisplay:10.37,2013-02-16 04:21:00,
2013-02-15 23:26:00,27.4,25.4,29.88,SW,225,0.0,0.0,92,0.00,CLR,BKN,0.01,WeatherDisplay:10.37,2013-02-16 04:26:00,
2013-02-15 23:31:00,27.3,25.0,29.88,SW,225,0.0,0.0,91,0.00,CLR,BKN,0.01,WeatherDisplay:10.37,2013-02-16 04:31:00,
2013-02-15 23:36:00,27.3,25.0,29.89,SW,225,0.0,0.0,91,0.00,CLR,BKN,0.01,WeatherDisplay:10.37,2013-02-16 04:36:00,
2013-02-15 23:41:00,27.5,25.5,29.88,SW,225,0.0,0.0,92,0.00,CLR,BKN,0.01,WeatherDisplay:10.37,2013-02-16 04:41:00,
2013-02-15 23:46:00,27.9,25.9,29.89,SW,225,0.0,0.0,92,0.00,CLR,BKN,0.01,WeatherDisplay:10.37,2013-02-16 04:46:00,
2013-02-15 23:51:00,28.3,26.3,29.89,SW,225,0.0,0.0,92,0.00,CLR,BKN,0.01,WeatherDisplay:10.37,2013-02-16 04:51:00,
2013-02-15 23:56:00,28.5,26.5,29.89,SW,225,0.0,0.0,92,0.00,CLR,BKN,0.01,WeatherDisplay:10.37,2013-02-16 04:56:00,